This is the latest recevied weather packets stored in our database for station/object K7YVO. If no packets are shown the sender has not sent any weather packets the latest 10 day(s).
| Time | Temp. | Humidity | Pressure | Rain* | Wind** | Luminosity | Snow |
|---|---|---|---|---|---|---|---|
| 1777658844 | 16.11° C | 70% | 1018.8 hPa | 0 mm | - | 608 W/m² | - |
| 1777658539 | 16.11° C | 69% | 1018.8 hPa | 0 mm | - | 532 W/m² | - |
| 1777658236 | 15.56° C | 68% | 1018.8 hPa | 0 mm | - | 537 W/m² | - |
| 1777657933 | 15.56° C | 69% | 1019 hPa | 0 mm | - | 588 W/m² | - |
| 1777657630 | 15.56° C | 69% | 1018.8 hPa | 0 mm | - | 571 W/m² | - |
| 1777657327 | 15° C | 72% | 1018.8 hPa | 0 mm | - | 530 W/m² | - |
| 1777657025 | 15° C | 72% | 1018.9 hPa | 0 mm | - | 425 W/m² | - |
| 1777656721 | 15° C | 73% | 1018.8 hPa | 0 mm | - | 499 W/m² | - |
| 1777656417 | 15° C | 73% | 1018.8 hPa | 0 mm | - | 413 W/m² | - |
| 1777656112 | 14.44° C | 74% | 1018.7 hPa | 0 mm | - | 348 W/m² | - |
| 1777655809 | 15° C | 74% | 1018.9 hPa | 0 mm | - | 154 W/m² | - |
| 1777655506 | 15° C | 72% | 1018.9 hPa | 0 mm | - | 152 W/m² | - |
| 1777655203 | 14.44° C | 73% | 1018.9 hPa | 0 mm | - | 151 W/m² | - |
| 1777654900 | 14.44° C | 73% | 1018.8 hPa | 0 mm | - | 149 W/m² | - |
| 1777654597 | 14.44° C | 75% | 1019 hPa | 0 mm | - | 156 W/m² | - |
| 1777654294 | 14.44° C | 74% | 1018.9 hPa | 0 mm | - | 161 W/m² | - |
| 1777653992 | 13.89° C | 75% | 1019.1 hPa | 0 mm | - | 164 W/m² | - |
| 1777653689 | 14.44° C | 74% | 1018.9 hPa | 0 mm | - | 168 W/m² | - |
| 1777653385 | 14.44° C | 74% | 1019 hPa | 0 mm | - | 174 W/m² | - |
| 1777653082 | 14.44° C | 73% | 1019.1 hPa | 0 mm | - | 182 W/m² | - |
| 1777652778 | 13.89° C | 75% | 1019.4 hPa | 0 mm | - | 181 W/m² | - |
| 1777652475 | 13.89° C | 75% | 1019.1 hPa | 0 mm | - | 165 W/m² | - |
| 1777652172 | 13.89° C | 76% | 1019.1 hPa | 0 mm | - | 149 W/m² | - |
| 1777651863 | 13.89° C | 76% | 1019.3 hPa | 0 mm | - | 136 W/m² | - |
| 1777651560 | 13.89° C | 75% | 1019.5 hPa | 0 mm | - | 120 W/m² | - |
* Rain latest hour (hover to see other rain measurements)
** Current wind speed in m/s (hover to see current wind gust speed)